SCP
0 0 0 -0 -0 -0 0 0 0 0 0 0 0 0 0 0 0 0 1 1 2 2 2 2 2 2 3 3 3 3 2 2 2 2 1 1 1 1 1 1 1 1 1 1
0 0 0 -0 -0 -0 0 0 0 0 0 0 0 0 0 0 0 0 1 1 1 2 2 2 2 2 3 3 3 2 2 2 2 1 1 1 1 1 1 1 1 1 1 1
0 0 0 -0 -0 -0 0 0 0 0 0 0 0 0 0 0 0 0 1 1 1 1 2 2 2 2 2 2 2 2 2 2 1 1 1 1 1 1 1 1 1 1 1 1
0 0 0 0 0 -0 0 0 0 0 0 0 0 0 0 0 0 0 0 1 1 1 1 2 2 2 2 2 2 1 1 1 1 1 1 1 1 1 1 1 1 1 1 0
0 0 0 0 0 0 0 0 0 0 0 0 0 0 0 0 0 0 0 1 1 1 1 2 2 2 2 1 1 1 1 1 1 1 1 1 1 1 1 1 1 1 0 -0
-0 -0 -0 0 0 0 0 0 0 0 0 0 0 0 0 0 0 0 0 1 1 1 1 2 2 2 1 1 1 1 1 1 1 1 1 1 1 1 1 1 1 1 0 0
-0 -0 -0 0 0 0 0 0 0 0 0 0 0 0 0 0 0 0 0 1 1 1 1 1 2 1 1 1 1 1 1 1 1 1 0 0 1 1 1 1 1 1 1 1
0 0 0 0 0 0 0 0 0 0 0 0 0 0 0 0 0 0 0 0 1 1 1 1 1 1 1 1 1 1 1 1 1 1 0 0 0 1 1 1 1 1 1 1
0 0 0 0 0 0 0 0 0 0 0 0 0 0 0 0 0 0 0 0 1 1 1 1 1 1 1 1 1 1 1 1 1 1 0 0 0 1 1 1 1 1 1 1
0 0 0 0 0 0 0 0 0 0 0 0 0 0 0 0 0 0 0 0 0 1 1 1 1 1 1 1 1 1 1 1 1 1 0 0 0 1 1 1 1 1 1 1
0 0 0 0 0 0 0 0 0 0 0 0 0 0 0 0 0 0 0 0 0 1 1 1 1 1 1 1 1 1 1 1 1 1 0 0 0 1 1 1 1 1 1 1
0 0 0 0 0 0 0 0 0 0 0 0 0 0 0 0 0 0 0 0 0 1 1 1 1 1 1 1 1 1 1 1 0 0 0 0 0 0 1 1 1 1 1 1
0 0 0 0 0 0 0 0 0 0 0 0 0 0 0 0 0 0 0 0 0 1 1 1 1 1 1 1 1 1 1 0 0 0 0 0 0 0 0 1 1 1 1 1
0 0 0 0 0 0 0 0 0 0 0 0 0 0 0 0 0 0 0 0 0 1 1 1 1 1 1 1 1 1 1 1 1 0 0 0 0 1 1 1 1 1 1 1
0 0 0 0 0 0 0 0 0 0 0 0 0 0 0 0 0 0 0 0 1 1 1 1 1 1 1 1 1 1 1 1 1 1 1 1 1 1 1 1 1 1 1 1
0 0 0 0 0 0 0 0 0 0 0 0 0 0 0 1 1 1 1 1 1 1 1 1 1 1 1 1 1 1 1 1 1 1 1 1 1 1 1 1 1 1 1 1
0 0 0 0 0 0 0 0 0 0 0 0 0 0 1 1 1 1 1 1 1 1 1 2 2 2 1 1 1 1 1 1 1 1 1 1 1 1 1 1 1 1 1 1
0 0 0 0 0 0 0 0 0 0 0 0 1 1 1 1 1 1 2 2 2 2 2 2 2 2 1 1 1 1 1 1 1 1 1 1 1 1 1 1 1 1 1 1
0 0 0 0 0 0 0 0 0 0 0 1 1 1 1 1 1 1 2 2 2 2 2 2 2 2 1 1 1 1 1 1 1 1 1 1 1 1 1 1 1 1 1 1
0 0 0 0 0 0 0 0 0 0 0 1 1 1 1 1 1 1 1 2 2 2 2 2 2 2 2 2 2 1 1 1 1 1 1 1 1 1 1 1 1 1 1 1
0 0 0 0 0 0 0 0 0 0 1 1 1 1 1 1 1 1 1 1 1 2 2 2 2 2 2 2 2 2 1 1 1 1 1 1 1 1 1 1 1 1 1 1
0 0 0 0 0 0 0 0 0 1 1 1 1 1 1 1 1 1 1 1 1 1 1 2 2 2 2 2 1 1 1 1 1 1 1 1 1 1 1 1 1 1 1 1
0 0 0 0 0 0 0 0 1 1 1 1 1 1 1 1 1 1 1 1 1 1 1 1 1 2 2 2 1 -1 0 1 1 1 1 1 1 1 1 1 1 1 0 0
0 0 0 0 0 0 0 0 0 0 0 0 0 0 0 1 1 1 1 1 1 1 1 1 1 1 1 1 0 -0 0 1 1 1 1 1 1 1 0 0 0 0 0 0
0 0 0 0 0 0 0 0 0 0 0 0 0 0 0 0 1 1 1 1 1 1 1 1 1 1 1 1 1 1 1 1 1 1 1 1 0 0 0 0 0 0 0 0
0 0 0 0 0 0 0 0 0 0 0 0 0 0 0 0 0 0 0 0 0 0 0 1 1 0 0 0 0 0 0 0 0 0 0 0 0 0 0 0 0 0 0 0
Wind_Speed
15 14 15 16 17 18 17 15 12 9 6 8 9 9 7 8 8 8 7 7 9 9 10 10 10 10 10 10 9 9 9 9 8 6 6 5 5 4 4 5 6 6 6 6
15 18 19 17 16 16 16 16 14 9 8 8 9 11 8 4 6 6 6 7 9 11 10 11 10 9 10 10 10 9 9 9 9 7 6 5 5 4 5 4 6 6 6 6
20 16 17 17 17 16 16 15 14 12 10 10 12 12 7 2 2 5 7 7 9 11 12 12 11 10 10 10 10 9 9 9 9 9 6 6 4 4 4 6 5 5 6 5
19 19 14 15 16 16 14 14 14 14 12 9 11 11 5 4 5 7 8 8 9 10 12 12 12 11 11 10 9 8 8 8 8 9 8 10 7 6 6 5 5 5 6 6
17 17 17 16 15 14 14 13 13 14 12 13 11 10 5 4 4 7 10 8 9 10 11 12 12 11 10 10 9 8 8 7 7 8 9 9 7 6 5 5 7 6 5 6
17 16 15 15 14 14 12 12 12 12 11 13 10 9 6 5 8 9 8 8 9 10 11 11 11 10 9 9 9 9 8 8 8 8 8 8 8 7 7 7 7 6 5 5
18 18 15 13 14 13 13 11 9 10 10 8 7 8 6 7 7 6 8 9 10 11 11 11 11 11 10 9 9 9 9 9 9 10 9 9 8 8 8 7 7 7 5 5
15 15 16 14 14 12 13 14 11 10 8 5 3 6 7 4 5 5 7 8 10 11 11 11 11 10 10 9 9 9 9 9 9 9 9 8 8 6 6 7 6 7 6 6
11 12 14 14 14 15 14 13 14 13 13 9 5 7 7 6 2 2 5 7 8 10 12 12 12 11 10 10 8 8 8 8 8 9 9 8 8 7 7 7 6 6 5 6
13 10 9 12 12 15 15 12 8 9 9 11 6 4 2 4 1 2 5 8 8 10 11 12 11 11 10 9 8 8 7 7 7 8 8 8 8 7 7 6 7 6 6 6
14 12 10 11 12 12 12 13 11 9 9 9 6 2 1 4 6 6 5 8 8 10 10 10 10 10 10 10 9 7 7 7 7 7 7 7 7 7 7 6 6 6 6 6
10 10 9 9 9 11 12 13 12 9 10 9 7 3 2 4 8 6 4 6 8 8 9 10 11 10 10 10 9 8 8 8 7 7 7 7 6 6 6 7 7 6 6 6
5 6 8 9 9 9 10 10 11 11 10 9 8 2 2 1 5 5 3 6 7 9 10 10 10 9 9 8 8 8 8 8 8 8 8 7 7 7 7 7 7 7 7 6
5 7 10 9 5 5 9 10 11 11 9 10 8 3 2 2 4 4 1 5 8 8 8 9 9 8 8 7 7 7 7 7 7 7 7 7 7 7 7 6 6 6 6 6
6 9 11 10 6 6 9 12 13 13 13 12 8 4 5 5 3 3 2 3 7 9 9 9 9 8 8 7 7 7 7 6 6 6 6 6 6 6 6 6 5 5 5 7
5 7 10 10 8 7 11 13 13 14 13 13 10 6 1 0 1 2 1 2 4 6 8 9 9 9 8 7 7 7 6 6 6 6 6 5 5 6 6 6 6 6 5 4
6 7 10 10 9 9 13 13 12 12 11 9 6 3 2 2 2 4 4 5 5 3 5 8 8 8 8 8 7 7 7 6 6 5 5 5 5 5 4 5 5 5 5 4
6 6 7 10 10 14 6 5 5 6 6 6 5 4 3 3 5 6 6 6 6 4 3 5 7 8 8 8 8 7 7 7 6 6 5 5 5 5 4 4 4 4 3 3
6 6 7 8 11 11 6 4 6 6 5 6 5 6 5 4 5 7 9 9 8 6 5 4 4 7 8 8 8 7 7 7 6 6 5 5 5 5 4 4 3 4 4 4
6 5 7 8 9 8 3 5 6 5 2 7 7 6 5 4 2 4 7 9 8 8 6 5 5 6 6 7 8 8 7 6 6 5 5 5 4 4 4 3 3 3 3 3
6 7 10 11 9 4 4 7 7 5 2 7 7 6 6 5 5 5 7 8 8 8 7 7 7 7 6 6 7 8 7 6 5 6 6 5 5 5 4 4 3 3 3 4
4 5 7 7 8 2 9 7 6 5 6 6 6 6 6 6 6 7 8 8 7 8 8 8 9 9 8 7 8 9 8 6 6 7 7 6 5 4 5 5 3 3 3 3
2 0 1 2 2 5 8 7 6 6 6 5 5 5 5 5 6 8 8 8 9 9 9 8 10 10 10 10 10 10 8 7 8 8 8 7 7 5 5 4 3 3 3 2
1 2 1 1 1 5 7 8 8 7 6 6 5 4 5 6 8 9 9 9 9 9 9 9 11 12 11 10 10 9 8 7 8 8 7 6 6 7 6 5 5 4 4 3
3 3 1 1 2 3 6 8 8 7 7 6 6 7 8 10 11 11 10 10 10 10 10 11 12 12 12 10 10 9 8 8 8 7 6 6 7 6 6 6 6 6 6 4
3 3 2 2 3 3 4 6 7 7 7 7 8 10 10 11 13 12 11 11 10 11 10 11 12 12 12 11 11 10 8 8 7 6 5 4 4 4 5 5 6 10 8 8
Wind_Direction
215 225 233 235 236 250 269 279 278 267 228 230 255 265 230 196 200 213 205 178 162 164 164 156 158 159 159 157 160 164 166 160 160 164 169 176 176 172 166 161 164 172 174 172
220 227 237 246 250 252 262 272 277 270 252 249 261 268 259 220 209 212 208 177 163 161 163 158 158 159 162 162 165 170 171 169 171 171 173 175 175 174 172 160 164 175 173 174
228 233 227 237 248 251 255 260 269 276 276 263 268 265 261 225 243 249 213 188 173 169 166 164 164 166 167 169 175 179 177 176 179 172 168 168 167 179 167 160 167 175 173 183
234 243 243 235 241 247 251 253 262 270 271 268 270 275 244 182 211 239 232 194 175 171 166 167 167 169 171 172 174 173 177 178 179 174 175 175 176 182 175 167 164 171 176 181
231 233 239 242 242 244 253 259 263 269 271 271 270 274 277 153 190 235 228 200 176 168 161 161 165 167 169 170 171 172 172 176 177 178 180 180 181 182 172 166 158 169 178 186
244 238 233 240 243 241 245 254 261 262 266 263 272 271 261 204 198 204 198 180 171 158 149 153 154 156 163 169 172 174 174 177 179 182 185 188 186 181 175 170 163 171 173 182
237 241 234 233 240 231 229 237 246 244 243 258 298 278 261 211 174 173 173 176 163 152 149 153 155 159 165 173 174 175 174 180 182 185 189 193 189 186 183 176 171 173 178 181
229 231 227 221 228 234 225 233 240 256 265 263 297 276 280 258 123 135 156 163 156 154 153 157 159 162 167 171 173 174 177 181 183 185 186 189 188 188 187 187 179 179 187 183
238 230 220 217 218 235 236 234 247 257 267 270 221 236 262 274 128 142 144 148 159 158 156 158 158 163 165 167 169 170 173 177 182 184 180 183 186 188 187 183 187 187 191 182
260 266 228 205 215 227 241 244 250 259 271 278 267 260 297 315 323 214 173 162 163 157 158 158 159 162 161 161 162 165 168 174 177 178 179 179 184 185 181 185 191 190 195 181
244 262 251 215 208 227 224 239 250 261 264 270 278 257 259 271 259 243 198 160 154 157 155 149 153 155 155 158 159 161 164 168 173 176 176 174 181 184 181 187 192 193 191 175
237 250 255 243 228 236 239 234 241 252 266 275 282 272 243 224 268 244 180 138 138 144 142 146 148 150 156 159 161 164 167 168 171 174 174 176 176 180 186 193 192 187 186 183
254 251 247 244 237 235 247 245 249 251 256 264 270 233 237 302 302 293 140 134 136 142 144 144 143 146 152 156 158 162 170 169 173 175 176 179 182 185 190 195 189 183 182 187
267 253 254 255 254 273 273 267 265 264 259 264 269 228 231 293 303 299 273 149 141 139 144 144 143 147 150 150 151 156 163 166 172 173 176 179 184 186 185 186 181 179 180 187
253 249 251 262 259 266 272 274 269 267 268 272 276 241 214 214 228 248 246 158 140 145 150 147 151 150 150 149 152 156 158 161 165 165 170 174 176 176 173 175 173 172 180 191
233 268 267 259 254 250 262 256 260 263 266 270 276 277 291 49 333 280 258 123 127 152 154 151 151 149 150 153 158 155 156 156 153 152 159 159 158 167 172 173 170 171 179 189
233 248 263 263 253 249 246 251 250 253 265 275 285 306 113 94 17 6 38 52 73 104 138 144 146 147 150 156 156 152 153 153 149 145 148 149 154 155 162 173 166 171 174 179
252 254 259 262 264 257 265 306 301 293 293 326 350 6 21 70 71 45 26 49 49 49 81 124 145 150 153 153 153 150 152 148 144 146 144 147 151 151 153 157 160 165 167 175
224 237 253 258 258 260 268 320 323 315 329 11 11 12 15 52 85 60 38 41 46 38 60 75 111 139 145 149 147 143 144 143 142 142 138 141 145 145 149 154 159 161 162 164
197 207 239 249 258 265 323 357 329 301 277 20 20 15 5 2 5 68 46 39 42 41 49 63 74 94 118 132 135 134 134 130 133 134 131 130 130 132 137 140 138 132 137 146
199 212 232 246 253 265 356 332 316 287 17 17 16 24 21 23 48 68 65 59 46 53 55 62 68 74 80 101 114 117 113 112 111 108 107 104 104 114 114 109 108 110 119 123
223 228 234 245 248 252 7 354 14 18 7 9 14 28 43 65 80 83 76 69 62 65 63 65 69 66 63 75 93 94 90 96 98 98 96 91 87 91 99 95 101 111 116 118
238 326 343 2 22 37 25 25 24 12 7 19 25 34 62 76 82 89 84 78 73 70 66 66 76 72 64 62 77 85 80 83 89 91 90 90 86 75 76 89 94 95 96 103
336 22 13 35 53 41 31 21 16 16 21 21 29 39 75 88 93 94 90 83 76 70 68 69 75 73 66 61 63 69 72 76 79 80 81 85 86 75 61 58 62 63 61 62
336 336 320 278 359 29 26 21 18 34 44 50 54 66 84 93 92 90 86 82 79 74 71 72 73 74 70 65 61 59 60 67 74 77 77 79 83 85 77 68 54 63 56 56
353 358 344 23 37 27 27 26 41 59 63 65 79 83 84 91 94 89 86 83 82 80 78 77 75 74 71 67 61 54 54 60 65 68 65 72 83 90 96 96 80 56 70 72